Regional Weather Roundup
Issued by NWS State College, PA

Home | Current Version | Previous Version | Text Only | Print | Product List | Glossary Off
Versions: 1 2 3 4 5 6 7 8 9 10 11 12 13 14 15 16 17 18 19 20 21 22 23 24 25 26 27 28 29 30 31 32 33 34 35 36 37 38 39 40 41 42 43 44 45 46 47 48 49 50

000
ASUS41 KCTP 300603
RWRCTP

REGIONAL WEATHER ROUNDUP
NATIONAL WEATHER SERVICE STATE COLLEGE PA
200 AM EDT SAT AUG 30 2014

Note: "fair" indicates few or no clouds below 12,000 feet with no
significant weather and/or obstructions to visibility.

* = STATION THAT DOES NOT REPORT PRECIPITATION /E.G. RAIN...SNOW...ETC/
    THUNDER OR FOG.

PAZ002>004-007>009-013>016-020>023-029>032-300700-
WESTERN PENNSYLVANIA

CITY           SKY/WX    TMP DP  RH WIND       PRES   REMARKS
ERIE           FAIR      67  54  63 S14       30.08F
MEADVILLE      FAIR      63  54  72 VRB3      30.12F
FRANKLIN*      FAIR      63  54  72 SE7       30.15F
NEW CASTLE     FAIR      57  56  97 CALM      30.13S
BEAVER COUNTY  NOT AVBL
BUTLER*        FAIR      64  54  68 SE5       30.15S
PITTSBURGH INT FAIR      63  57  81 CALM      30.12S
PITTSBURGH     FAIR      64  56  75 SE6       30.12F
INDIANA*       CLEAR     66  57  72 S7G16     30.20S
LATROBE        CLEAR     68  61  77 S7        30.15F
WASHINGTON CO* FAIR      55  54  94 CALM      30.13F VSB 1
$$

PAZ004>006-010>012-017>019-024>028-033>037-041-042-045-046-049>053-300700-
CENTRAL PENNSYLVANIA

CITY           SKY/WX    TMP DP  RH WIND       PRES   REMARKS
BRADFORD       FAIR      58  52  80 S7        30.19S
DUBOIS         FAIR      60  53  77 SE9       30.17F
CLEARFIELD     FAIR      53  52  96 N7        30.20S
JOHNSTOWN      FAIR      61  54  77 S6        30.21S
ALTOONA        FAIR      62  54  74 S6        30.22S
STATE COLLEGE  FAIR      59  53  79 W3        30.21R
WILLIAMSPORT   FAIR      58  53  84 CALM      30.20R
SELINSGROVE    FAIR      53  51  93 CALM      30.22F
FT INDIANTOWN  FAIR      54  54 100 CALM      30.24S
CAPITAL CITY   FAIR      64  56  75 S8        30.23R
HARRISBURG     FAIR      65  56  72 S6        30.22S
YORK           FAIR      63  59  87 CALM      30.23S
$$

PAZ038>040-043-044-047-048-054-055-060>062-067>071-300700-
EASTERN PENNSYLVANIA

CITY           SKY/WX    TMP DP  RH WIND       PRES   REMARKS
SCRANTON       FAIR      63  57  81 VRB6      30.24R
MOUNT POCONO   CLOUDY    60  52  74 S6        30.27F
ALLENTOWN      FAIR      60  55  83 CALM      30.24F
QUAKERTOWN*    FAIR      55  55 100 CALM      30.26S
READING        FAIR      62  57  83 CALM      30.23S
LANCASTER      FAIR      58  54  86 NE3       30.24S
COATESVILLE    FAIR      57  57 100 CALM      30.25F
POTTSTOWN      FAIR      58  56  93 CALM      30.26F
BLUE BELL      FAIR      55  54  94 CALM      30.24S
DOYLESTOWN     FAIR      58  56  93 CALM      30.25S
WILLOW GROVE   NOT AVBL
NORTH PHILA    FAIR      62  55  77 CALM      30.26S
PHILADELPHIA   FAIR      65  58  78 CALM      30.25S
$$


USA.gov is the U.S. government's official web portal to all federal, state and local government web resources and services.